• In Czech Republic
  • List of Countries
  • For 7 days
  • Water Temperature
  • Satellite Maps
  • Weather Map
  • Weather Widgets
  • user-avatar
    Login

    Hourly Weather Tatabanya

    Today, 15 October, Monday

    Time Temperature Precipitation Wind Pressure Humidity
    00:00 +13°C° 0 mm 2 mps 746 mmHg 47%
    01:00 +13°C° 0 mm 2 mps 746 mmHg 48%
    02:00 +12°C° 0 mm 2 mps 746 mmHg 48%
    03:00 +12°C° 0 mm 2 mps 746 mmHg 48%
    04:00 +11°C° 0 mm 3 mps 746 mmHg 47%
    05:00 +11°C° 0 mm 3 mps 746 mmHg 47%
    06:00 +11°C° 0 mm 3 mps 746 mmHg 47%
    07:00 +11°C° 0 mm 3 mps 746 mmHg 47%
    08:00 +13°C° 0 mm 4 mps 746 mmHg 42%
    09:00 +15°C° 0 mm 4 mps 746 mmHg 38%
    10:00 +19°C° 0 mm 5 mps 747 mmHg 33%
    11:00 +20°C° 0 mm 5 mps 746 mmHg 31%
    12:00 +21°C° 0 mm 5 mps 746 mmHg 29%
    13:00 +22°C° 0 mm 5 mps 746 mmHg 27%
    14:00 +21°C° 0 mm 4 mps 746 mmHg 28%
    15:00 +21°C° 0 mm 4 mps 745 mmHg 29%
    16:00 +21°C° 0 mm 3 mps 745 mmHg 30%
    17:00 +19°C° 0 mm 3 mps 745 mmHg 33%
    18:00 +17°C° 0 mm 3 mps 745 mmHg 35%
    19:00 +16°C° 0 mm 3 mps 745 mmHg 38%
    20:00 +14°C° 0 mm 3 mps 745 mmHg 38%
    21:00 +14°C° 0 mm 3 mps 745 mmHg 39%
    22:00 +13°C° 0 mm 3 mps 745 mmHg 40%
    23:00 +13°C° 0 mm 3 mps 745 mmHg 41%

    Tomorrow, 16 October, Tuesday

    Time Temperature Precipitation Wind Pressure Humidity
    00:00 +12°C° 0 mm 3 mps 745 mmHg 42%
    01:00 +12°C° 0 mm 3 mps 745 mmHg 43%
    02:00 +12°C° 0 mm 3 mps 745 mmHg 43%
    03:00 +11°C° 0 mm 3 mps 745 mmHg 44%
    04:00 +11°C° 0 mm 3 mps 745 mmHg 45%
    05:00 +11°C° 0 mm 3 mps 745 mmHg 45%
    06:00 +11°C° 0 mm 3 mps 745 mmHg 45%
    07:00 +11°C° 0 mm 3 mps 745 mmHg 45%
    08:00 +13°C° 0 mm 3 mps 746 mmHg 42%
    09:00 +16°C° 0 mm 3 mps 746 mmHg 38%
    10:00 +18°C° 0 mm 4 mps 746 mmHg 35%
    11:00 +19°C° 0 mm 4 mps 746 mmHg 34%
    12:00 +21°C° 0 mm 4 mps 746 mmHg 33%
    13:00 +22°C° 0 mm 4 mps 745 mmHg 31%
    14:00 +21°C° 0 mm 3 mps 745 mmHg 33%
    15:00 +21°C° 0 mm 2 mps 745 mmHg 35%
    16:00 +21°C° 0 mm 2 mps 745 mmHg 37%
    17:00 +20°C° 0 mm 2 mps 745 mmHg 39%
    18:00 +18°C° 0 mm 2 mps 745 mmHg 41%
    19:00 +17°C° 0 mm 2 mps 745 mmHg 43%
    20:00 +16°C° 0 mm 2 mps 745 mmHg 44%
    21:00 +16°C° 0 mm 2 mps 745 mmHg 44%
    22:00 +15°C° 0 mm 2 mps 745 mmHg 45%
    23:00 +15°C° 0 mm 2 mps 745 mmHg 45%

    Day after tomorrow, 17 October, Wednesday

    Time Temperature Precipitation Wind Pressure Humidity
    00:00 +14°C° 0 mm 2 mps 745 mmHg 45%
    01:00 +14°C° 0 mm 2 mps 745 mmHg 45%
    02:00 +14°C° 0 mm 2 mps 745 mmHg 46%
    03:00 +13°C° 0 mm 2 mps 745 mmHg 46%
    04:00 +13°C° 0 mm 2 mps 745 mmHg 46%
    05:00 +13°C° 0 mm 2 mps 745 mmHg 46%
    06:00 +13°C° 0 mm 2 mps 745 mmHg 46%
    07:00 +13°C° 0 mm 2 mps 745 mmHg 46%
    08:00 +15°C° 0 mm 2 mps 745 mmHg 41%
    09:00 +17°C° 0 mm 2 mps 745 mmHg 36%
    10:00 +19°C° 0 mm 3 mps 745 mmHg 31%
    11:00 +20°C° 0 mm 3 mps 745 mmHg 29%
    12:00 +22°C° 0 mm 3 mps 745 mmHg 27%
    13:00 +24°C° 0 mm 3 mps 744 mmHg 25%
    14:00 +23°C° 0 mm 2 mps 744 mmHg 27%
    15:00 +23°C° 0 mm 2 mps 744 mmHg 29%
    16:00 +21°C° 0 mm 2 mps 743 mmHg 31%
    17:00 +20°C° 0 mm 2 mps 743 mmHg 33%
    18:00 +18°C° 0 mm 2 mps 743 mmHg 35%
    19:00 +16°C° 0 mm 2 mps 743 mmHg 37%
    20:00 +16°C° 0 mm 2 mps 743 mmHg 38%
    21:00 +15°C° 0 mm 1 mps 743 mmHg 39%
    22:00 +15°C° 0 mm 1 mps 743 mmHg 40%
    23:00 +14°C° 0 mm 1 mps 743 mmHg 41%

    18 October, Thursday

    Time Temperature Precipitation Wind Pressure Humidity
    00:00 +14°C° 0 mm 1 mps 743 mmHg 42%
    01:00 +13°C° 0 mm 1 mps 743 mmHg 43%
    02:00 +13°C° 0 mm 1 mps 743 mmHg 44%
    03:00 +13°C° 0 mm 1 mps 743 mmHg 46%
    04:00 +12°C° 0 mm 1 mps 743 mmHg 47%
    05:00 +12°C° 0 mm 1 mps 743 mmHg 48%
    06:00 +12°C° 0 mm 1 mps 743 mmHg 49%
    07:00 +12°C° 0 mm 1 mps 743 mmHg 50%
    08:00 +15°C° 0 mm 1 mps 744 mmHg 45%
    09:00 +18°C° 0 mm 1 mps 744 mmHg 41%
    10:00 +20°C° 0 mm 1 mps 744 mmHg 36%
    11:00 +21°C° 0 mm 1 mps 744 mmHg 35%
    12:00 +23°C° 0 mm 1 mps 743 mmHg 34%
    13:00 +24°C° 0 mm 1 mps 743 mmHg 33%
    14:00 +23°C° 0 mm 1 mps 743 mmHg 35%
    15:00 +22°C° 0 mm 1 mps 743 mmHg 37%
    16:00 +22°C° 0 mm 1 mps 742 mmHg 39%
    17:00 +21°C° 0 mm 1 mps 743 mmHg 40%
    18:00 +19°C° 0 mm 1 mps 743 mmHg 42%
    19:00 +18°C° 0 mm 1 mps 743 mmHg 44%
    20:00 +18°C° 0 mm 1 mps 743 mmHg 44%
    21:00 +16°C° 0 mm 1 mps 743 mmHg 45%
    22:00 +16°C° 0 mm 1 mps 743 mmHg 46%
    23:00 +16°C° 0 mm 1 mps 743 mmHg 47%

    19 October, Friday

    Time Temperature Precipitation Wind Pressure Humidity
    00:00 +14°C° 0 mm 0 mps 743 mmHg 48%
    01:00 +14°C° 0 mm 0 mps 743 mmHg 50%
    02:00 +15°C° 0 mm 1 mps 743 mmHg 51%
    03:00 +14°C° 0 mm 1 mps 743 mmHg 53%
    04:00 +14°C° 0 mm 1 mps 743 mmHg 54%
    05:00 +14°C° 0 mm 1 mps 743 mmHg 55%
    06:00 +14°C° 0 mm 1 mps 744 mmHg 56%
    07:00 +14°C° 0 mm 1 mps 744 mmHg 57%
    08:00 +15°C° 0 mm 1 mps 744 mmHg 52%
    09:00 +18°C° 0 mm 1 mps 744 mmHg 47%
    10:00 +19°C° 0 mm 2 mps 744 mmHg 42%
    11:00 +20°C° 0 mm 2 mps 744 mmHg 40%
    12:00 +21°C° 0 mm 2 mps 744 mmHg 38%
    13:00 +23°C° 0 mm 2 mps 744 mmHg 36%
    14:00 +23°C° 0 mm 2 mps 744 mmHg 38%
    15:00 +21°C° 0 mm 2 mps 744 mmHg 40%
    16:00 +21°C° 0 mm 2 mps 743 mmHg 42%
    17:00 +19°C° 0 mm 2 mps 744 mmHg 46%
    18:00 +19°C° 0 mm 1 mps 744 mmHg 50%
    19:00 +16°C° 0 mm 1 mps 744 mmHg 54%
    20:00 +16°C° 0 mm 1 mps 744 mmHg 56%
    21:00 +15°C° 0 mm 1 mps 744 mmHg 59%
    22:00 +15°C° 0 mm 1 mps 744 mmHg 61%
    23:00 +14°C° 0 mm 1 mps 745 mmHg 64%

    20 October, Saturday

    Time Temperature Precipitation Wind Pressure Humidity
    00:00 +14°C° 0 mm 1 mps 745 mmHg 67%
    01:00 +13°C° 0 mm 1 mps 745 mmHg 70%
    02:00 +13°C° 0 mm 1 mps 745 mmHg 73%
    03:00 +12°C° 0 mm 1 mps 745 mmHg 76%
    04:00 +12°C° 0 mm 1 mps 745 mmHg 79%
    05:00 +12°C° 0 mm 1 mps 745 mmHg 81%
    06:00 +12°C° 0 mm 1 mps 745 mmHg 82%
    07:00 +11°C° 0 mm 1 mps 746 mmHg 83%
    08:00 +13°C° 0 mm 2 mps 746 mmHg 75%
    09:00 +15°C° 0 mm 2 mps 746 mmHg 66%
    10:00 +17°C° 0 mm 2 mps 747 mmHg 58%
    11:00 +18°C° 0 mm 3 mps 746 mmHg 54%
    12:00 +19°C° 0 mm 3 mps 746 mmHg 51%
    13:00 +20°C° 0 mm 3 mps 746 mmHg 47%
    14:00 +20°C° 0 mm 4 mps 746 mmHg 48%
    15:00 +19°C° 0 mm 4 mps 746 mmHg 50%
    16:00 +19°C° 0 mm 4 mps 746 mmHg 51%
    17:00 +17°C° 0 mm 4 mps 746 mmHg 55%
    18:00 +15°C° 0 mm 4 mps 747 mmHg 58%
    19:00 +14°C° 0 mm 4 mps 747 mmHg 61%
    20:00 +13°C° 0 mm 3 mps 747 mmHg 62%
    21:00 +12°C° 0 mm 3 mps 748 mmHg 63%
    22:00 +11°C° 0 mm 3 mps 748 mmHg 64%
    23:00 +11°C° 0 mm 3 mps 748 mmHg 63%
    Show more